Date String (YYYY-MM-DD hh:mm:ss) UTC,Instrument flags,absolute air pressure of the measurement (hPa),sample flow rate (lpm),inlet stack bypass flow (lpm),air temperature of the measurement (°C),ambient temperature measured by the external sensor (°C),aerosol sample conditioner tube jacket temperature (°C),OPC LED temperature (°C),internal box temperature (°C),relative humidity of the measurement (%),span deviation,mass concentration of particles derived from Lorenz-Mie calculation of OPC scattering (μg/m³),mass concentration of particles derived from Lorenz-Mie calculation of OPC scattering (μg/m³),mass concentration of particles derived from Lorenz-Mie calculation of OPC scattering (μg/m³)
DateTimeUTC,F1_M11,P_M11,Q1_M11,Q2_M11,T1_M11,T2_M11,T3_M11,T4_M11,T5_M11,U1_M11,ZSPAN_M11,X0_M11,X2_M11,X1_M11
2023-07-25 19:00:00,SystemResetWarning,0834.0,5.00,000.00,028.7,027.0,000.0,037.0,030.4,22.7,0000.0,0009.84,0004.02,0003.08
2023-07-25 19:01:00,SystemResetWarning,0834.1,5.00,000.00,028.8,027.3,000.0,037.0,030.5,22.1,0000.0,0009.53,0004.08,0003.07
2023-07-25 19:02:00,SystemResetWarning,0834.0,5.00,000.00,028.8,027.4,000.0,037.0,030.6,21.7,0000.0,0009.56,0004.10,0003.05
2023-07-25 19:03:00,SystemResetWarning,0834.1,4.99,000.00,028.8,026.3,000.0,036.9,030.4,21.2,0000.0,0009.34,0004.09,0003.05
2023-07-25 19:04:00,SystemResetWarning,0834.1,5.01,000.00,028.7,025.2,000.0,036.9,030.1,21.8,0000.0,0009.30,0004.11,0003.04
2023-07-25 19:05:00,SystemResetWarning,0834.1,5.02,000.00,028.7,025.5,000.0,036.8,030.1,23.7,0000.0,0010.74,0004.14,0003.04
2023-07-25 19:06:00,SystemResetWarning,0834.0,5.00,000.00,028.6,025.8,000.0,036.9,030.1,22.3,0000.0,0012.21,0004.15,0003.06
2023-07-25 19:07:00,SystemResetWarning,0833.9,5.00,000.00,028.6,026.2,000.0,036.9,030.2,22.0,0000.0,0012.20,0004.13,0003.06
2023-07-25 19:08:00,SystemResetWarning,0833.9,5.01,000.00,028.7,026.7,000.0,037.0,030.3,23.1,0000.0,0011.92,0004.08,0003.06
2023-07-25 19:09:00,SystemResetWarning,0834.0,4.99,000.00,028.7,027.0,000.0,037.0,030.4,22.1,0000.0,0012.04,0004.08,0003.07
2023-07-25 19:10:00,SystemResetWarning,0834.1,4.99,000.00,028.8,027.4,000.0,037.0,030.5,22.8,0000.0,0012.52,0004.12,0003.06
2023-07-25 19:11:00,SystemResetWarning,0834.0,4.99,000.00,028.8,027.6,000.0,037.0,030.6,23.3,0000.0,0012.26,0004.14,0003.07
2023-07-25 19:12:00,SystemResetWarning,0834.1,4.99,000.00,028.8,026.4,000.0,037.0,030.4,22.0,0000.0,0012.67,0004.13,0003.07
2023-07-25 19:13:00,SystemResetWarning,0834.0,5.00,000.00,028.8,025.3,000.0,036.9,030.2,22.1,0000.0,0012.74,0004.15,0003.09
2023-07-25 19:14:00,SystemResetWarning,0834.1,5.02,000.00,028.7,025.5,000.0,036.9,030.2,22.2,0000.0,0012.72,0004.15,0003.10
2023-07-25 19:15:00,SystemResetWarning,0834.1,5.00,000.00,028.7,025.9,000.0,036.9,030.1,23.5,0000.0,0012.64,0004.13,0003.10
2023-07-25 19:16:00,SystemResetWarning,0834.1,5.00,000.00,028.7,026.3,000.0,037.0,030.2,22.8,0000.0,0011.96,0004.12,0003.11
2023-07-25 19:17:00,SystemResetWarning,0834.0,5.00,000.00,028.7,026.7,000.0,037.0,030.3,23.0,0000.0,0010.22,0004.14,0003.11
2023-07-25 19:18:00,SystemResetWarning,0834.1,4.99,000.00,028.8,027.1,000.0,037.0,030.5,23.5,0000.0,0009.95,0004.17,0003.11
2023-07-25 19:19:00,SystemResetWarning,0834.1,4.99,000.00,028.8,027.3,000.0,037.0,030.6,24.6,0000.0,0010.14,0004.19,0003.13
2023-07-25 19:20:00,SystemResetWarning,0834.1,5.00,000.00,028.8,026.3,000.0,037.0,030.4,24.1,0000.0,0010.01,0004.20,0003.14
2023-07-25 19:21:00,SystemResetWarning,0834.0,5.00,000.00,028.8,025.2,000.0,036.9,030.2,23.6,0000.0,0009.62,0004.17,0003.14
2023-07-25 19:22:00,SystemResetWarning,0834.1,5.01,000.00,028.7,025.5,000.0,036.9,030.2,23.0,0000.0,0009.77,0004.12,0003.13
2023-07-25 19:23:00,SystemResetWarning,0834.0,5.01,000.00,028.7,025.8,000.0,036.9,030.2,23.9,0000.0,0009.32,0004.11,0003.13
2023-07-25 19:24:00,SystemResetWarning,0834.0,5.00,000.00,028.7,026.2,000.0,036.9,030.2,22.0,0000.0,0009.56,0004.12,0003.13
2023-07-25 19:25:00,SystemResetWarning,0834.0,5.00,000.00,028.7,026.6,000.0,037.0,030.3,22.6,0000.0,0010.11,0004.13,0003.13
2023-07-25 19:26:00,SystemResetWarning,0834.0,5.00,000.00,028.8,027.0,000.0,037.0,030.4,23.3,0000.0,0010.13,0004.16,0003.13
2023-07-25 19:27:00,SystemResetWarning,0834.0,5.01,000.00,028.8,027.3,000.0,037.0,030.5,23.6,0000.0,0009.86,0004.17,0003.12
2023-07-25 19:28:00,SystemResetWarning,0833.9,4.99,000.00,028.8,026.3,000.0,037.0,030.3,23.5,0000.0,0010.00,0004.23,0003.13
2023-07-25 19:29:00,SystemResetWarning,0833.9,4.99,000.00,028.8,025.2,000.0,036.9,030.2,23.1,0000.0,0009.85,0004.23,0003.13
2023-07-25 19:30:00,SystemResetWarning,0833.8,5.01,000.00,028.7,025.5,000.0,036.8,030.2,23.9,0000.0,0009.76,0004.23,0003.12
2023-07-25 19:31:00,SystemResetWarning,0833.9,5.00,000.00,028.7,025.8,000.0,036.9,030.1,23.6,0000.0,0009.68,0004.20,0003.11
2023-07-25 19:32:00,SystemResetWarning,0833.9,4.99,000.00,028.7,026.3,000.0,036.9,030.2,24.6,0000.0,0009.52,0004.16,0003.11
2023-07-25 19:33:00,SystemResetWarning,0833.9,5.00,000.00,028.7,026.7,000.0,037.0,030.3,22.5,0000.0,0009.18,0004.21,0003.12
2023-07-25 19:34:00,SystemResetWarning,0833.9,5.01,000.00,028.8,027.1,000.0,037.0,030.4,22.4,0000.0,0009.35,0004.23,0003.13
2023-07-25 19:35:00,SystemResetWarning,0833.9,5.00,000.00,028.8,027.3,000.0,037.0,030.5,23.7,0000.0,0009.36,0004.21,0003.13
2023-07-25 19:36:00,SystemResetWarning,0833.8,4.98,000.00,028.8,026.3,000.0,036.9,030.4,23.3,0000.0,0008.74,0004.20,0003.15
2023-07-25 19:37:00,SystemResetWarning,0833.8,5.01,000.00,028.7,025.2,000.0,036.9,030.1,21.9,0000.0,0008.76,0004.21,0003.16
2023-07-25 19:38:00,SystemResetWarning,0833.7,5.02,000.00,028.7,025.5,000.0,036.8,030.1,23.1,0000.0,0008.77,0004.19,0003.17
2023-07-25 19:39:00,SystemResetWarning,0833.8,5.00,000.00,028.7,025.8,000.0,036.9,030.1,22.8,0000.0,0008.53,0004.09,0003.17
2023-07-25 19:40:00,SystemResetWarning,0833.8,5.01,000.00,028.7,026.2,000.0,036.9,030.2,22.7,0000.0,0008.60,0004.05,0003.17
2023-07-25 19:41:00,SystemResetWarning,0833.8,4.99,000.00,028.7,026.6,000.0,037.0,030.3,22.6,0000.0,0008.61,0004.04,0003.17
2023-07-25 19:42:00,SystemResetWarning,0833.8,5.00,000.00,028.7,027.0,000.0,037.0,030.4,22.9,0000.0,0008.92,0004.06,0003.19
2023-07-25 19:43:00,SystemResetWarning,0833.7,4.99,000.00,028.8,027.3,000.0,037.0,030.5,22.1,0000.0,0009.32,0004.06,0003.19
2023-07-25 19:44:00,SystemResetWarning,0833.7,4.99,000.00,028.8,026.3,000.0,036.9,030.3,22.6,0000.0,0009.28,0004.04,0003.19
2023-07-25 19:45:00,SystemResetWarning,0833.7,5.00,000.00,028.7,025.2,000.0,036.9,030.2,23.0,0000.0,0009.15,0004.03,0003.20
2023-07-25 19:46:00,SystemResetWarning,0833.7,5.01,000.00,028.7,025.4,000.0,036.8,030.2,22.9,0000.0,0008.80,0004.05,0003.21
2023-07-25 19:47:00,SystemResetWarning,0833.7,5.00,000.00,028.7,025.8,000.0,036.9,030.1,24.7,0000.0,0008.76,0004.03,0003.21
2023-07-25 19:48:00,SystemResetWarning,0833.7,5.00,000.00,028.7,026.2,000.0,036.9,030.2,23.6,0000.0,0008.72,0004.02,0003.20
2023-07-25 19:49:00,SystemResetWarning,0833.6,5.01,000.00,028.7,026.7,000.0,036.9,030.3,22.6,0000.0,0008.58,0003.99,0003.20
2023-07-25 19:50:00,SystemResetWarning,0833.7,5.00,000.00,028.7,027.0,000.0,037.0,030.4,23.4,0000.0,0008.54,0004.00,0003.19
2023-07-25 19:51:00,SystemResetWarning,0833.6,4.99,000.00,028.8,027.3,000.0,037.0,030.5,23.3,0000.0,0008.73,0004.04,0003.20
2023-07-25 19:52:00,SystemResetWarning,0833.4,5.00,000.00,028.8,026.3,000.0,036.9,030.4,22.5,0000.0,0008.68,0004.03,0003.19
2023-07-25 19:53:00,SystemResetWarning,0833.6,5.01,000.00,028.7,025.2,000.0,036.9,030.1,23.2,0000.0,0008.70,0004.06,0003.19
2023-07-25 19:54:00,SystemResetWarning,0833.6,5.01,000.00,028.7,025.4,000.0,036.8,030.1,24.1,0000.0,0008.73,0004.06,0003.18
2023-07-25 19:55:00,SystemResetWarning,0833.6,5.00,000.00,028.6,025.8,000.0,036.9,030.1,23.0,0000.0,0008.87,0004.06,0003.18
2023-07-25 19:56:00,SystemResetWarning,0833.5,5.00,000.00,028.6,026.2,000.0,036.9,030.2,23.2,0000.0,0008.85,0004.07,0003.18
2023-07-25 19:57:00,SystemResetWarning,0833.5,5.00,000.00,028.7,026.7,000.0,036.9,030.3,25.1,0000.0,0008.84,0004.06,0003.19
2023-07-25 19:58:00,SystemResetWarning,0833.5,4.98,000.00,028.7,027.1,000.0,037.0,030.4,24.3,0000.0,0009.01,0004.08,0003.19
2023-07-25 19:59:00,SystemResetWarning,0833.4,5.00,000.00,028.8,027.4,000.0,037.0,030.5,24.1,0000.0,0009.32,0004.12,0003.18
